Change the Weather History Date:

Monday, May 19, 2014

  Actual Average (KEAU) Record (KEAU)
Temperature  
Mean Temperature 54 °F 58 °F  
Max Temperature 59 °F 71 °F 94 °F (1934)
Min Temperature 50 °F 46 °F 27 °F (1929)
Degree Days  
Heating Degree Days 10 7  
Month to date heating degree days 185  
Since 1 July heating degree days 7826  
Cooling Degree Days 0 1  
Month to date cooling degree days 13  
Year to date cooling degree days 17  
Growing Degree Days 4 (Base 50)    
Moisture  
Dew Point 45 °F    
Average Humidity 76    
Maximum Humidity 100    
Minimum Humidity 40    
Precipitation  
Precipitation 2.11 in 0.12 in 2.00 in (1897)
Month to date precipitation 2.07  
Year to date precipitation 8.25  
Snow  
Snow 0.00 in 0.00 in T in (1924)
Month to date snowfall 0.2  
Since 1 July snowfall 47.0  
Snow Depth -    
Sea Level Pressure  
Sea Level Pressure 29.95 in    
Wind  
Wind Speed 12 mph (ESE)    
Max Wind Speed 21 mph    
Max Gust Speed 28 mph    
Visibility 8 miles    
Events Rain , Thunderstorm    
T = Trace of Precipitation, MM = Missing Value Source: NWS Daily Summary

Daily Weather History Graph

Daily Weather History Graph

Search for Another Location

Airport or City:

Trip Planner

Search our weather history database for the weather conditions in past years. The results will help you decide how hot, cold, wet, or windy it might be!

Date:

Astronomy

May. 19, 2014 Rise Set
Actual Time 5:34 AM CDT 8:34 PM CDT
Civil Twilight 4:59 AM CDT 9:08 PM CDT
Nautical Twilight 4:15 AM CDT 9:53 PM CDT
Astronomical Twilight 3:22 AM CDT 10:46 PM CDT
Moon 12:18 AM CDT (5/19) 10:36 AM CDT (5/19)
Length of Visible Light 16h 08m
Length of Day
14h 59m
Waning Gibbous, 71% of the Moon is Illuminated
May 19
Waning Gibbous
May 21
Last Quarter
May 28
New
Jun 5
First Quarter
Jun 12
Full

Hourly Weather History & Observations

Time (CDT) Temp. Dew Point Humidity Pressure Visibility Wind Dir Wind Speed Gust Speed Precip Events Conditions
12:15 AM 59.2 °F 35.2 °F 41% 30.06 in 10.0 mi SSE 9.2 mph - N/A   Clear
12:35 AM 59.4 °F 35.1 °F 40% 30.06 in 10.0 mi SSE 10.4 mph - N/A   Clear
12:55 AM 59.4 °F 35.4 °F 41% 30.06 in 10.0 mi South 10.4 mph - N/A   Clear
1:15 AM 59.0 °F 35.8 °F 42% 30.06 in 10.0 mi SSE 9.2 mph - N/A   Clear
1:35 AM 59.5 °F 35.6 °F 41% 30.07 in 10.0 mi SSE 10.4 mph - N/A   Clear
1:55 AM 59.9 °F 35.6 °F 40% 30.06 in 10.0 mi SSE 11.5 mph - N/A   Clear
2:15 AM 59.5 °F 35.6 °F 41% 30.07 in 10.0 mi SSE 9.2 mph - N/A   Clear
2:35 AM 59.2 °F 35.8 °F 42% 30.06 in 10.0 mi SSE 11.5 mph - N/A   Clear
2:55 AM 58.5 °F 36.1 °F 43% 30.07 in 10.0 mi SSE 9.2 mph - N/A   Clear
3:15 AM 58.3 °F 36.5 °F 44% 30.06 in 10.0 mi SSE 8.1 mph - N/A   Clear
3:35 AM 57.6 °F 36.5 °F 45% 30.06 in 10.0 mi SSE 9.2 mph - N/A   Clear
3:55 AM 57.6 °F 36.5 °F 45% 30.05 in 10.0 mi SSE 10.4 mph - N/A   Clear
4:15 AM 57.4 °F 36.9 °F 46% 30.05 in 10.0 mi SSE 10.4 mph - N/A   Scattered Clouds
4:35 AM 55.9 °F 37.4 °F 50% 30.05 in 10.0 mi SE 9.2 mph - N/A   Clear
4:55 AM 55.9 °F 37.4 °F 50% 30.05 in 10.0 mi SE 9.2 mph - N/A   Scattered Clouds
5:15 AM 54.7 °F 37.6 °F 53% 30.04 in 10.0 mi SE 8.1 mph - N/A   Scattered Clouds
5:35 AM 53.8 °F 38.3 °F 56% 30.03 in 10.0 mi SE 8.1 mph - N/A   Clear
5:55 AM 50.9 °F 39.2 °F 64% 30.03 in 10.0 mi ESE 6.9 mph - N/A   Clear
6:15 AM 51.4 °F 39.7 °F 64% 30.03 in 10.0 mi ESE 8.1 mph - N/A   Clear
6:35 AM 53.2 °F 39.7 °F 60% 30.04 in 10.0 mi SE 6.9 mph - N/A   Clear
6:55 AM 56.1 °F 39.7 °F 54% 30.03 in 10.0 mi SE 9.2 mph - N/A   Mostly Cloudy
7:15 AM 57.4 °F 39.7 °F 52% 30.03 in 10.0 mi SE 11.5 mph - N/A   Mostly Cloudy
7:35 AM 58.1 °F 40.1 °F 51% 30.03 in 10.0 mi SE 12.7 mph - N/A   Mostly Cloudy
9:35 AM 58.1 °F 42.3 °F 56% 29.98 in 10.0 mi ESE 15.0 mph 20.7 mph N/A   Overcast
9:55 AM 58.3 °F 42.4 °F 56% 29.98 in 10.0 mi ESE 15.0 mph 26.5 mph N/A   Overcast
10:15 AM 57.9 °F 42.8 °F 57% 29.99 in 10.0 mi SE 16.1 mph - N/A   Overcast
10:35 AM 57.6 °F 42.6 °F 57% 29.97 in 10.0 mi ESE 18.4 mph 21.9 mph N/A   Overcast
10:55 AM 57.2 °F 43.0 °F 59% 29.96 in 10.0 mi ESE 19.6 mph 27.6 mph N/A   Overcast
11:15 AM 56.8 °F 43.9 °F 62% 29.96 in 10.0 mi ESE 17.3 mph 25.3 mph N/A Rain Light Rain
11:35 AM 54.9 °F 46.2 °F 73% 29.96 in 7.0 mi ESE 17.3 mph 24.2 mph 0.02 in Rain , Thunderstorm Thunderstorms and Rain
11:55 AM 50.9 °F 50.0 °F 97% 29.95 in 7.0 mi ESE 15.0 mph 21.9 mph 0.06 in Rain , Thunderstorm Rain
12:15 PM 50.9 °F 50.2 °F 97% 29.95 in 10.0 mi ESE 12.7 mph 18.4 mph 0.02 in Rain , Thunderstorm Thunderstorms and Rain
12:35 PM 50.9 °F 50.2 °F 97% 29.93 in 7.0 mi East 15.0 mph 21.9 mph 0.12 in Rain , Thunderstorm Light Thunderstorms and Rain
12:55 PM 50.5 °F 50.0 °F 98% 29.93 in 5.0 mi East 16.1 mph 21.9 mph 0.20 in Rain Rain
1:15 PM 50.9 °F 50.2 °F 97% 29.93 in 5.0 mi East 19.6 mph 23.0 mph 0.10 in Rain Rain
1:35 PM 50.9 °F 50.4 °F 98% 29.93 in 5.0 mi East 16.1 mph 19.6 mph 0.17 in Rain Rain
1:55 PM 50.5 °F 50.2 °F 99% 29.93 in 5.0 mi East 15.0 mph 25.3 mph 0.28 in Rain Rain
2:15 PM 50.5 °F 50.2 °F 99% 29.94 in 7.0 mi East 13.8 mph - 0.05 in Rain , Thunderstorm Rain
2:35 PM 50.5 °F 50.2 °F 99% 29.93 in 5.0 mi East 13.8 mph 18.4 mph 0.15 in Rain Heavy Rain
3:15 PM 50.9 °F 50.4 °F 98% 29.94 in 5.0 mi NE 6.9 mph - 0.06 in Rain , Thunderstorm Heavy Thunderstorms and Rain
3:35 PM 50.9 °F 50.4 °F 98% 29.95 in 5.0 mi NE 5.8 mph - 0.15 in Rain , Thunderstorm Heavy Thunderstorms and Rain
3:55 PM 50.7 °F 50.4 °F 99% 29.91 in 3.0 mi ESE 12.7 mph 26.5 mph 0.25 in Rain , Thunderstorm Heavy Thunderstorms and Rain
4:15 PM 50.7 °F 50.4 °F 99% 29.91 in 1.2 mi ESE 15.0 mph - 0.40 in Rain , Thunderstorm Heavy Thunderstorms and Rain
4:35 PM 50.5 °F 50.4 °F 99% 29.91 in 3.0 mi East 13.8 mph - 0.63 in Rain , Thunderstorm Heavy Thunderstorms and Rain
4:55 PM 50.5 °F 50.4 °F 99% 29.90 in 4.0 mi ESE 17.3 mph 20.7 mph 0.77 in Rain , Thunderstorm Heavy Thunderstorms and Rain
5:15 PM 50.5 °F 50.4 °F 99% 29.89 in 3.0 mi ESE 19.6 mph 25.3 mph 0.12 in Rain , Thunderstorm Heavy Thunderstorms and Rain
5:55 PM 50.7 °F 50.4 °F 99% 29.88 in 5.0 mi SE 18.4 mph 26.5 mph 0.25 in Rain , Thunderstorm Rain
6:35 PM 50.9 °F 50.9 °F 100% 29.86 in 7.0 mi SE 20.7 mph 26.5 mph 0.05 in Rain , Thunderstorm Light Thunderstorms and Rain
6:55 PM 50.9 °F 50.9 °F 100% 29.86 in 7.0 mi ESE 17.3 mph 24.2 mph 0.06 in Rain Light Rain
7:15 PM 51.1 °F 50.9 °F 99% 29.85 in 5.0 mi ESE 13.8 mph 20.7 mph 0.05 in Rain Light Rain
7:35 PM 51.8 °F 51.4 °F 99% 29.85 in 7.0 mi ESE 11.5 mph - 0.08 in Rain Rain
7:55 PM 52.0 °F 51.8 °F 99% 29.85 in 7.0 mi ESE 10.4 mph - 0.09 in Rain , Thunderstorm Light Thunderstorms and Rain
8:15 PM 52.2 °F 52.0 °F 99% 29.85 in 7.0 mi ESE 11.5 mph - N/A Rain Light Rain
8:35 PM 52.2 °F 52.0 °F 99% 29.85 in 7.0 mi ESE 11.5 mph - N/A   Overcast
8:55 PM 52.2 °F 52.0 °F 99% 29.85 in 10.0 mi ESE 13.8 mph - N/A   Overcast
9:15 PM 51.8 °F 51.8 °F 100% 29.85 in 10.0 mi ESE 11.5 mph - N/A   Overcast
9:35 PM 51.4 °F 51.3 °F 99% 29.86 in 10.0 mi ESE 15.0 mph 21.9 mph N/A   Overcast
9:55 PM 52.2 °F 52.0 °F 99% 29.85 in 10.0 mi ESE 13.8 mph 21.9 mph N/A   Overcast
10:15 PM 52.7 °F 52.2 °F 98% 29.85 in 7.0 mi ESE 12.7 mph 23.0 mph N/A   Overcast
10:35 PM 52.7 °F 50.2 °F 91% 29.84 in 5.0 mi ESE 13.8 mph - N/A Rain Light Rain
10:55 PM 52.7 °F 50.0 °F 91% 29.84 in 10.0 mi ESE 11.5 mph - N/A   Overcast
11:15 PM 52.7 °F 49.6 °F 89% 29.83 in 7.0 mi ESE 10.4 mph - N/A   Overcast
11:35 PM 52.7 °F 49.6 °F 89% 29.83 in 7.0 mi ESE 8.1 mph - N/A   Overcast
11:55 PM 52.9 °F 49.6 °F 89% 29.82 in 7.0 mi ESE 5.8 mph - N/A Thunderstorm Thunderstorm